CDT,Max TemperatureF,Mean TemperatureF,Min TemperatureF,Max Dew PointF,MeanDew PointF,Min DewpointF,Max Humidity, Mean Humidity, Min Humidity, Max Sea Level PressureIn, Mean Sea Level PressureIn, Min Sea Level PressureIn, Max VisibilityMiles, Mean VisibilityMiles, Min VisibilityMiles, Max Wind SpeedMPH, Mean Wind SpeedMPH, Max Gust SpeedMPH,PrecipitationIn, CloudCover, Events, WindDirDegrees
2012-10-1,78,65,52,59,50,45,90,66,41,29.97,29.93,29.88,10,10,5,29,12,33,0.02,4,Rain,343
2012-10-2,76,63,49,48,42,36,80,53,25,30.03,29.96,29.89,10,10,10,12,5,21,0.00,0,,343
2012-10-3,82,64,45,52,45,40,82,55,28,29.96,29.90,29.83,10,10,10,24,11,32,0.00,0,,172
2012-10-4,65,59,53,52,43,39,86,67,47,30.25,30.16,29.93,10,10,10,24,13,30,T,6,,22
2012-10-5,58,51,43,40,34,25,65,47,28,30.33,30.26,30.22,10,10,10,24,13,31,T,5,,28
2012-10-6,48,44,40,36,33,28,73,62,50,30.39,30.34,30.29,10,10,10,21,9,25,T,7,Rain,3
2012-10-7,57,45,33,34,30,26,89,61,32,30.38,30.30,30.19,10,10,10,13,6,24,0.00,3,,293
2012-10-8,69,50,31,36,32,27,85,56,26,30.19,30.07,29.96,10,10,10,24,13,31,0.00,1,,190
2012-10-9,71,59,46,48,41,32,76,58,40,30.18,29.95,29.87,10,10,10,24,11,30,0.00,2,,150
2012-10-10,68,53,37,34,30,25,79,51,22,30.30,30.20,30.12,10,10,10,14,6,17,0.00,2,,86
2012-10-11,81,67,53,64,50,33,93,68,43,30.10,30.03,29.94,10,10,8,24,12,36,0.00,5,,161
2012-10-12,69,61,52,66,57,43,100,76,51,30.22,30.12,30.00,10,6,0,23,10,30,0.22,8,Fog-Rain-Thunderstorm,95
2012-10-13,78,67,55,72,65,48,100,86,72,29.96,29.78,29.60,10,8,4,24,14,32,0.08,6,Rain-Thunderstorm,183
2012-10-14,77,65,52,51,45,41,80,55,29,30.06,29.93,29.64,10,10,10,23,12,31,0.00,1,,300
2012-10-15,88,68,47,49,44,38,80,49,17,30.03,29.93,29.79,10,10,10,18,9,23,0.00,1,,215
2012-10-16,82,68,54,56,51,48,83,60,36,29.78,29.65,29.48,10,10,10,20,12,24,0.00,2,,186
2012-10-17,73,59,45,57,43,24,90,54,18,29.81,29.58,29.38,10,10,8,30,14,39,T,4,Rain,317
2012-10-18,66,57,47,25,21,18,42,29,16,29.88,29.84,29.79,10,8,2,36,20,47,0.00,2,,294
2012-10-19,68,56,44,30,24,18,58,39,19,29.92,29.86,29.83,10,10,7,28,14,35,0.00,1,,308
2012-10-20,83,62,40,50,38,30,69,47,24,29.83,29.75,29.66,10,10,10,17,7,21,0.00,1,,164
2012-10-21,89,73,57,67,61,49,100,69,38,29.73,29.67,29.60,10,8,3,28,15,33,0.00,3,,154
2012-10-22,75,69,62,66,57,49,84,64,44,29.82,29.76,29.66,10,10,8,22,11,27,T,4,,194
2012-10-23,91,78,64,67,62,51,93,60,27,29.82,29.72,29.63,10,10,7,31,19,40,0.00,5,,186
2012-10-24,84,76,68,66,65,64,90,73,55,29.79,29.73,29.63,10,10,8,30,20,38,0.00,5,,182
2012-10-25,71,54,37,63,41,31,78,64,50,30.34,29.98,29.58,10,10,5,31,20,39,T,6,Rain,349
2012-10-26,49,40,30,30,26,24,76,58,39,30.55,30.43,30.34,10,10,10,22,14,29,0.00,4,,9
2012-10-27,50,37,24,28,25,23,85,61,36,30.44,30.35,30.23,10,10,10,9,4,20,0.00,3,,60
2012-10-28,57,42,27,30,27,25,92,61,30,30.34,30.28,30.21,10,10,10,14,7,20,0.00,3,,144
2012-10-29,67,51,34,31,29,26,75,50,24,30.27,30.18,30.06,10,10,10,23,12,29,0.00,3,,171
2012-10-30,76,61,45,38,35,30,61,43,25,30.05,29.96,29.88,10,10,10,15,7,18,0.00,3,,146
2012-10-31,69,53,37,37,35,32,82,55,27,30.10,30.03,29.98,10,10,8,9,4,12,0.00,2,,75